Regional Weather Roundup
Issued by NWS

Home | Current Version | Previous Version | Graphics & Text | Print | Product List | Glossary On
Versions: 1 2 3 4 5 6 7 8 9 10 11 12 13 14 15 16 17 18 19 20 21 22 23 24 25 26 27 28 29 30 31 32 33 34 35 36 37 38 39 40 41 42 43 44 45 46 47 48 49 50
131
ASUS44 KMEG 241610
RWRTN
TENNESSEE HOURLY STATE WEATHER ROUNDUP
NATIONAL WEATHER SERVICE MEMPHIS TN
1100 AM CDT WED MAY 24 2017

TNZ002-004-019-021-049-052-054-088>092-241700-
WEST TENNESSEE

CITY           SKY/WX    TMP DP  RH WIND       PRES   REMARKS
MEMPHIS INTL   PTSUNNY   69  56  62 NW15      29.59R
NWS MEMPHIS      N/A     64 N/A N/A MISG        N/A
JACKSON        CLOUDY    63  57  81 NW13      29.55F
DYERSBURG        N/A    N/A N/A N/A MISG        N/A
COVINGTON      MOSUNNY   66  55  68 NW15      29.58R
UNION CITY     PTSUNNY   63  57  82 NW7       29.54S
BOLIVAR        PTSUNNY   64  55  72 NW9G15    29.56S
PARIS            N/A     57  55  94 VRB6      29.52S
HUNTINGDON     PTSUNNY   57  57 100 NW6G13    29.52S
LEXINGTON      MOSUNNY   57  55  94 MISG      29.52R
SELMER         CLOUDY    59  55  88 NW8G16    29.55R
SAVANNAH       PTSUNNY   61  57  88 VRB7G14   29.54R
$$

TNZ008-025-027-028-033-062-065-066-241700-
NORTH MIDDLE TENNESSEE

CITY           SKY/WX    TMP DP  RH WIND       PRES   REMARKS
NASHVILLE      CLOUDY    64  60  87 SE5       29.42F THUNDER
PORTLAND       PTSUNNY   61  59  94 NE7       29.42F FOG
CLARKSVILLE    RAIN      59  57  93 N9        29.46S FOG
SMYRNA         PTSUNNY   62  61  96 NW3       29.41F
COOKEVILLE     PTSUNNY   68  63  83 S8        29.43F
CROSSVILLE     PTSUNNY   63  59  87 S6        29.49F
$$

TNZ061-075-076-078-094-096-097-241700-
SOUTH MIDDLE TENNESSEE

CITY           SKY/WX    TMP DP  RH WIND       PRES   REMARKS
FAYETTEVILLE   CLOUDY    66  59  77 SW15G25   29.44S
TULLAHOMA      PTSUNNY   66  59  77 S10       29.44F
WINCHESTER     PTSUNNY   70  57  64 S10         N/A
COLUMBIA       CLOUDY    57  57 100 VRB6G17   29.44R FOG
SHELBYVILLE    PTSUNNY   70  61  73 S14G21    29.41F
$$

TNZ017-018-042-046-047-241700-
NORTHEAST TENNESSEE

CITY           SKY/WX    TMP DP  RH WIND       PRES   REMARKS
TRI CITIES     PTSUNNY   73  61  65 SE8       29.51F
ELIZABETHTON   PTSUNNY   72  59  64 SE6G15    29.53R
$$

TNZ012-013-036-069-073-074-241700-
CENTRAL EAST TENNESSEE

CITY           SKY/WX    TMP DP  RH WIND       PRES   REMARKS
KNOXVILLE      LGT RAIN  61  59  93 S10       29.51R FOG
OAK RIDGE      LGT RAIN  61  59  93 CALM      29.49F
DOWNTOWN KNOXV PTSUNNY   63  61  94 W9        29.53R FOG
GATLINBURG     CLOUDY    64  57  77 W13       29.47R
MORRISTOWN     CLOUDY    68  63  83 E8        29.43F
JACKSBORO      CLOUDY    61  61 100 E6        29.53R FOG
$$

TNZ083-085-099-241700-
SOUTHEAST TENNESSEE

CITY           SKY/WX    TMP DP  RH WIND       PRES   REMARKS
CHATTANOOGA    PTSUNNY   65  61  87 S8        29.51S
$$

SKY/WX REPORTED AS FAIR MEANS FEW OR NO CLOUDS BELOW
12 THOUSAND FEET.





USA.gov is the U.S. government's official web portal to all federal, state and local government web resources and services.